www.pogodaiklimat.ru

Погода и климат >> Архив погоды >> Аргентина >> Гуалегуайчу


ПОГОДА в Гуалегуайчу

  • Прогноз погоды в Гуалегуайчу
  • Монитор погоды в Гуалегуайчу

АРХИВ ПОГОДЫ в Гуалегуайчу

Время (UTC), дата Ветер
(напр.,м/с)
 
Видим.   Явления Облачность Т
(С)
Тd
(С)
f
(%)
Тe
(С)
Тes
(С)
Комфортность P
(гПа)
Po
(гПа)
Тmin
(С)
Tmax
(С)
R
(мм)
R24
(мм)
S
(см)
12 17.01 ЮВ 3 15 км 10/10 360 м
[Sc]
+21.7 +19.4 87 +27 +27 душно 1015.3 1012.9 +20.0 +24.2
15 17.01 ЮВ 4 15 км 10/0
[Ac As]
+22.8 +17.7 73 +28 +32 душно 1014.9 1012.5
18 17.01 ЮВ 4 15 км {дождь} 10/6 450 м
[Sc Ac As Cs]
+24.7 +18.6 69 +29 +31 душно 1014.6 1012.2 0.5
21 17.01 Ю 4 8000 м слаб. дождь 10/5 600 м
[Sc As op]
+20.5 +18.3 87 +24 +25 комфорт 1014.6 1012.1
00 18.01 Ю 4 8000 м слаб. дождь 10/6 450 м
[St As op]
+18.6 +15.2 81 +19 +19 1016.2 1013.7 +18.6 +24.7 1
09 18.01 ЮВ 5 8000 м слаб. дождь 10/0 1350 м
[As op]
+15.0 +13.6 91 +13 +13 1016.7 1014.2
12 18.01 Ю 6 15 км в посл. час дождь 8/0
[Ac As]
+17.3 +12.3 72 +16 +18 1018.1 1015.6 +14.8 +18.6 7
15 18.01 Ю 5 15 км 9/4 450 м
[Sc Ac As]
+21.7 +13.7 60 +24 +27 комфорт 1018.5 1016.1
18 18.01 ЮВ 3 15 км 10/8 450 м
[Sc Ac As]
+22.2 +14.7 62 +26 +26 душно 1018.1 1015.6
21 18.01 Ю 3 15 км {дождь} 6/5 600 м
[Sc Ac As]
+20.0 +15.5 75 +23 +24 комфорт 1017.5 1014.9
00 19.01 ЮВ 2 15 км {дождь} ясно +18.5 +15.5 83 +20 +20 1018.2 1015.7 +17.3 +23.2 1
12 19.01 ЮВ 2 15 км ясно +20.0 +14.2 69 +23 +30 комфорт 1021.2 1018.8 +13.2 +20.0 1
15 19.01 ЮВ 3 15 км 6/6 1050 м
[Sc]
+22.8 +14.0 58 +26 +33 жарко 1021.6 1019.2
18 19.01 В 3 15 км 6/6 1050 м
[Sc]
+25.0 +12.7 46 +27 +33 жарко 1020.9 1018.5
21 19.01 В 3 15 км 5/5 600 м
[Sc]
+25.6 +13.5 47 +28 +29 жарко 1017.9 1015.4
00 20.01 ЮВ 1 15 км ясно +21.8 +14.4 63 +25 +25 комфорт 1018.1 1015.6 +20.0 +25.8
09 20.01 В 2 15 км ясно +16.4 +14.0 86 +16 +16 1018.0 1015.6
12 20.01 В 5 15 км ясно +20.4 +15.0 71 +23 +27 комфорт 1018.3 1015.8 +16.4 +21.8
15 20.01 В 6 15 км 3/3 600 м
[Sc]
+24.0 +13.9 53 +26 +32 жарко 1017.3 1014.9
18 20.01 В 4 15 км 6/6 750 м
[Sc]
+26.2 +13.0 44 +28 +32 жарко 1015.0 1012.5
21 20.01 В 3 15 км 6/6 900 м
[Sc]
+26.2 +14.3 48 +29 +30 жарко 1012.4 1010.0
00 21.01 В 2 15 км ясно +23.0 +15.8 64 +27 +27 душно 1012.1 1009.7 +20.4 +26.6
09 21.01 В 2 15 км 5/4 600 м
[Sc Ci fib]
+17.8 +16.5 92 +19 +19 1011.8 1009.4
12 21.01 СВ 4 15 км 1/0
[Ci fib]
+23.0 +18.8 77 +29 +34 очень
душно
1013.2 1010.8 +17.8 +23.0 421
15 21.01 С 3 15 км 3/1 750 м
[Sc Ci sp]
+28.0 +17.7 54 +32 +48 душно 1013.6 1011.2
18 21.01 С 2 15 км 3/0
[Ci sp]
+29.5 +16.4 45 +33 +48 душно 1011.5 1009.0
21 21.01 С 3 15 км ясно +30.0 +16.4 44 +33 +36 душно 1010.0 1007.6
00 22.01 СВ 2 15 км ясно +25.9 +19.3 67 +31 +31 очень
душно
1010.2 1007.7 +23.0 +30.3
09 22.01 В 2 15 км 1/0
[Ci fib]
+20.8 +18.3 86 +26 +26 душно 1010.9 1008.5
12 22.01 С 4 15 км 3/0
[Ci fib]
+26.0 +19.9 69 +32 +37 очень
душно
1011.4 1009.0 +20.5 +26.0
15 22.01 С 4 15 км 3/0
[Ci fib]
+31.0 +20.8 55 +38 +51 опасность
солнечного
удара
1010.6 1008.1
18 22.01 С 3 15 км 9/5 750 м
[Cu hum Cs]
+32.6 +21.2 51 +40 +46 очень
душно
1009.4 1007.0
21 22.01 С 4 15 км 9/3 900 м
[Cu hum Cs]
+32.5 +21.9 54 +41 +42 опасность
перегрева
1007.7 1005.3
00 23.01 СВ 2 15 км 8/0
[Ci fib]
+28.6 +23.0 72 +38 +38 очень
душно
1007.9 1005.4 +26.0 +33.5
12 23.01 В 5 8000 м гроза, ливневой дождь 10/3 1200 м
[Cb calv As op]
+22.4 +21.8 96 +30 +30 очень
душно
1012.6 1010.1 +21.0 +28.6 34
15 23.01 В 5 15 км в посл. час дождь {гроза} 10/10 1050 м
[Sc]
+23.6 +22.4 93 +31 +31 очень
душно
1012.6 1010.1
18 23.01 СВ 5 15 км {гроза, дождь} 10/10 1050 м
[Sc]
+25.6 +20.8 75 +32 +32 очень
душно
1013.2 1010.8 7
21 23.01 СВ 4 15 км 8/3 750 м
[Sc Cs]
+26.1 +20.9 73 +33 +34 очень
душно
1012.3 1009.8
00 24.01 ЮВ 2 15 км 5/0
[Ci fib]
+23.7 +20.7 83 +30 +30 очень
душно
1012.7 1010.2 +22.0 +26.4
09 24.01 В 2 15 км 4/0
[Cs]
+21.2 +20.3 95 +26 +26 душно 1014.7 1012.2

 

Местоположение метеостанции Гуалегуайчу (Аргентина): широта -33.00 долгота -58.61 высота над уровнем моря 21 м.

В архиве по умолчанию представлена погода в Гуалегуайчу за последнюю неделю. Архивные данные за месяц целиком и за предыдущие месяцы, начиная с января 2011 года, Вы можете получить, выбрав интересующий диапазон дат из раскрывающегося списка и нажав кнопку "Ввод!".


*Определитесь, кто Вы:
робот инопланетянин человек

Внимание! Время в таблицах - всемирное. Для получения местного времени необходимо прибавить поправку, которая равна -3 ч.

Смотрите также архив погоды в соседних городах и на ближайших метеорологических станциях:

Погода в Мерседесе (Уругвай) (58 км)
Погода в Пайсанду (Уругвай) (92 км)
Погода в Янге (Уругвай) (98 км)
Погода в Буэнос-Айресе аэропорт (Аргентина) (174 км)
Погода в Буэнос-Айресе (Аргентина) (176 км)
Погода в Колонии (Уругвай) (177 км)
Погода в Сальто (Уругвай) (191 км)
Погода в Конкордии (Аргентина) (197 км)
Погода в Пасо-де-лос-Торосе (Уругвай) (197 км)
Погода в Дурасно (Уругвай) (200 км)

Пояснения к столбцам:

Ветер - указаны скорость ветра в м/с - средняя за 10 мин, порывы в срок и между сроками (в фигурных скобках) и направление, откуда дует ветер: С - северный, СВ - северо-восточный, В - восточный, ЮВ - юго-восточный, Ю - южный, ЮЗ - юго-западный, З - западный, СЗ - северо-западный.
Видимость - горизонтальная дальность видимости в метрах или километрах. При видимости от 1 до 10 км при отсутствии осадков обычно наблюдается дымка, при ухудшении видимости до 1 км и менее - туман. В сухую погоду видимость может ухудшаться дымом, пылью или мглою.
Явления - указаны атмосферные явления, наблюдавшиеся в срок или в последний час перед сроком; фигурными скобками обозначены явления, наблюдавшиеся между сроками (за 1-3 часа до срока); квадратными скобками обозначены град или гололедные отложения с указанием их диаметра в мм.
Облачность - указаны через наклонную черту общая и нижняя облачность в баллах и высота нижней границы облаков в метрах; квадратными скобками обозначены формы облаков: Ci - перистые, Cs - перисто-слоистые, Cc - перисто-кучевые, Ac - высококучевые, As - высокослоистые, Sc - слоисто-кучевые, Ns - слоисто-дождевые, Cu - кучевые, Cb - кучево-дождевые. Подробнее классификацию облаков см. в Атласе облаков (PDF).
T - Температура воздуха - температура, измеренная на высоте 2 м над землей.
Td - Температура точки росы - температура, при понижении до которой содержащийся в воздухе водяной пар достигнет насыщения.
f - Относительная влажность воздуха - влажноcть воздуха, измеренная на высоте 2 м над землей.
Te - Эффективная температура - температура, которую ощущает одетый по сезону человек в тени. Характеристика душности погоды. При расчете учитывается влияние влажности воздуха и скорости ветра на теплоощущения человека.
Tes - Эффективная температура на солнце - температура, которую ощущает человек, с поправкой на солнечный нагрев. Характеристика знойности погоды. Зависит от высоты солнца над горизонтом, облачности и скорости ветра. Ночью, в пасмурную погоду, а также при ветре 12 м/с и более поправка равна нулю.
P - Атмосферное давление - приведенное к уровню моря атмосферное давление.
Po - Атмосферное давление - измеренное на уровне метеостанции атмосферное давление.
Tmin - Минимальная температура - минимум температуры воздуха на высоте 2 м над землей.
Tmax - Максимальная температура - максимум температуры воздуха на высоте 2 м над землей.
R - Количество осадков - Количество выпавших осадков за период времени, мм. При наведении курсора мыши на число - период времени, за который выпало указанное количество осадков.
R24 - Количество осадков - Количество выпавших осадков за 24 часа, мм.
S - Снежный покров - Высота снежного покрова, см. При наведении курсора мыши на число - состояние снежного покрова и степень покрытия местности в баллах.